Location: Charbonni�res
(45.9952°N, 2.9982°E)
Time: 18:22:27
(UTC+00:00)

RESURS DK-1 - Pass Details

Date: 29 November 2020
Orbit: 557 x 560 km, 69.9° (Epoch: 23 January)

Event Time Altitude Azimuth Distance (km) Brightness Sun altitude
Exits shadow 04:27:12 - 174° (S) 2,004 5.3 -27.1°
Reaches altitude 10° 04:27:39 10° 171° (S) 1,843 5.1 -27.1°
Maximum altitude 04:31:17 31° 109° (ESE) 999 4.2 -26.4°
Drops below altitude 10° 04:34:57 10° 47° (NE) 1,858 5.5 -25.8°
Sets 04:37:20 0° 37° (NE) 2,759 6.3 -25.4°
